Time,TemperatureF,DewpointF,PressureIn,WindDirection,WindDirectionDegrees,WindSpeedMPH,WindSpeedGustMPH,Humidity,HourlyPrecipIn,Conditions,Clouds,dailyrainin,SolarRadiationWatts/m^2,SoftwareType,DateUTC
2013-09-10 00:02:00,77.7,61.7,29.77,South,182,8.0,8.0,58,0.00,,,0.00,0,Wunderground v.1.15,2013-09-10 05:02:00,
2013-09-10 00:07:00,77.7,61.7,29.77,SW,215,8.0,12.0,58,0.00,,,0.00,0,Wunderground v.1.15,2013-09-10 05:07:00,
2013-09-10 00:12:00,77.6,61.2,29.77,SSW,206,7.0,7.0,57,0.00,,,0.00,0,Wunderground v.1.15,2013-09-10 05:12:00,
2013-09-10 00:17:00,77.5,61.6,29.77,SW,217,7.0,9.0,58,0.00,,,0.00,0,Wunderground v.1.15,2013-09-10 05:17:00,
2013-09-10 00:23:00,77.3,61.4,29.77,SSW,204,7.0,7.0,58,0.00,,,0.00,0,Wunderground v.1.15,2013-09-10 05:23:00,
2013-09-10 00:29:00,77.0,61.1,29.77,SSW,200,6.0,9.0,58,0.00,,,0.00,0,Wunderground v.1.15,2013-09-10 05:29:00,
2013-09-10 00:35:00,76.9,61.0,29.78,SSW,194,5.0,8.0,58,0.00,,,0.00,0,Wunderground v.1.15,2013-09-10 05:35:00,
2013-09-10 00:40:00,76.8,61.4,29.77,SSW,196,6.0,10.0,59,0.00,,,0.00,0,Wunderground v.1.15,2013-09-10 05:40:00,
2013-09-10 00:45:00,76.7,60.8,29.77,SSE,165,6.0,10.0,58,0.00,,,0.00,0,Wunderground v.1.15,2013-09-10 05:45:00,
2013-09-10 00:50:00,76.7,61.3,29.78,South,185,6.0,6.0,59,0.00,,,0.00,0,Wunderground v.1.15,2013-09-10 05:50:00,
2013-09-10 00:56:00,76.5,61.1,29.78,South,184,6.0,9.0,59,0.00,,,0.00,0,Wunderground v.1.15,2013-09-10 05:56:00,
2013-09-10 01:02:00,76.4,61.0,29.78,SSE,166,6.0,6.0,59,0.00,,,0.00,0,Wunderground v.1.15,2013-09-10 06:02:00,
2013-09-10 01:07:00,76.1,61.2,29.78,SW,217,5.0,8.0,60,0.00,,,0.00,0,Wunderground v.1.15,2013-09-10 06:07:00,
2013-09-10 01:12:00,75.9,61.0,29.78,South,177,5.0,7.0,60,0.00,,,0.00,0,Wunderground v.1.15,2013-09-10 06:12:00,
2013-09-10 01:17:00,75.6,61.2,29.78,SSE,167,6.0,9.0,61,0.00,,,0.00,0,Wunderground v.1.15,2013-09-10 06:17:00,
2013-09-10 01:23:00,75.4,61.0,29.78,SSW,199,5.0,8.0,61,0.00,,,0.00,0,Wunderground v.1.15,2013-09-10 06:23:00,
2013-09-10 01:29:00,75.3,60.9,29.78,South,180,5.0,9.0,61,0.00,,,0.00,0,Wunderground v.1.15,2013-09-10 06:29:00,
2013-09-10 01:35:00,75.0,61.1,29.79,SSE,166,5.0,6.0,62,0.00,,,0.00,0,Wunderground v.1.15,2013-09-10 06:35:00,
2013-09-10 01:41:00,74.8,60.9,29.79,South,191,5.0,7.0,62,0.00,,,0.00,0,Wunderground v.1.15,2013-09-10 06:41:00,
2013-09-10 01:47:00,74.7,61.3,29.79,SSW,203,5.0,7.0,63,0.00,,,0.00,0,Wunderground v.1.15,2013-09-10 06:47:00,
2013-09-10 01:52:00,74.7,61.3,29.79,South,171,5.0,7.0,63,0.00,,,0.00,0,Wunderground v.1.15,2013-09-10 06:52:00,
2013-09-10 01:57:00,74.5,61.1,29.79,SSW,205,5.0,7.0,63,0.00,,,0.00,0,Wunderground v.1.15,2013-09-10 06:57:00,
2013-09-10 02:02:00,74.5,61.1,29.79,South,188,5.0,7.0,63,0.00,,,0.00,0,Wunderground v.1.15,2013-09-10 07:02:00,
2013-09-10 02:08:00,74.4,61.4,29.80,South,179,5.0,7.0,64,0.00,,,0.00,0,Wunderground v.1.15,2013-09-10 07:08:00,
2013-09-10 02:13:00,74.5,61.1,29.80,SW,219,5.0,7.0,63,0.00,,,0.00,0,Wunderground v.1.15,2013-09-10 07:13:00,
2013-09-10 02:18:00,74.4,61.4,29.80,South,175,5.0,7.0,64,0.00,,,0.00,0,Wunderground v.1.15,2013-09-10 07:18:00,
2013-09-10 02:23:00,74.3,61.3,29.80,South,190,5.0,5.0,64,0.00,,,0.00,0,Wunderground v.1.15,2013-09-10 07:23:00,
2013-09-10 02:29:00,74.3,61.3,29.80,SW,220,5.0,7.0,64,0.00,,,0.00,0,Wunderground v.1.15,2013-09-10 07:29:00,
2013-09-10 02:35:00,74.4,61.4,29.80,South,176,5.0,7.0,64,0.00,,,0.00,0,Wunderground v.1.15,2013-09-10 07:35:00,
2013-09-10 02:41:00,74.5,61.5,29.80,SSE,150,5.0,6.0,64,0.00,,,0.00,0,Wunderground v.1.15,2013-09-10 07:41:00,
2013-09-10 02:47:00,74.6,61.6,29.80,South,189,5.0,6.0,64,0.00,,,0.00,0,Wunderground v.1.15,2013-09-10 07:47:00,
2013-09-10 02:53:00,74.6,62.1,29.80,SSE,167,5.0,7.0,65,0.00,,,0.00,0,Wunderground v.1.15,2013-09-10 07:53:00,
2013-09-10 02:59:00,74.5,62.0,29.80,South,176,5.0,7.0,65,0.00,,,0.00,0,Wunderground v.1.15,2013-09-10 07:59:00,
2013-09-10 03:05:00,74.4,61.9,29.80,SSW,208,5.0,8.0,65,0.00,,,0.00,0,Wunderground v.1.15,2013-09-10 08:05:00,
2013-09-10 03:10:00,74.5,62.0,29.80,South,175,5.0,5.0,65,0.00,,,0.00,0,Wunderground v.1.15,2013-09-10 08:10:00,
2013-09-10 03:16:00,74.3,62.2,29.80,SSW,192,5.0,7.0,66,0.00,,,0.00,0,Wunderground v.1.15,2013-09-10 08:16:00,
2013-09-10 03:22:00,74.4,62.3,29.80,SSE,164,5.0,5.0,66,0.00,,,0.00,0,Wunderground v.1.15,2013-09-10 08:22:00,
2013-09-10 03:27:00,74.1,62.0,29.80,SSW,211,4.0,6.0,66,0.00,,,0.00,0,Wunderground v.1.15,2013-09-10 08:27:00,
2013-09-10 03:32:00,74.1,62.4,29.80,SSW,196,5.0,6.0,67,0.00,,,0.00,0,Wunderground v.1.15,2013-09-10 08:32:00,
2013-09-10 03:37:00,74.2,62.5,29.80,SW,214,5.0,6.0,67,0.00,,,0.00,0,Wunderground v.1.15,2013-09-10 08:37:00,
2013-09-10 03:42:00,74.1,62.4,29.80,South,183,5.0,8.0,67,0.00,,,0.00,0,Wunderground v.1.15,2013-09-10 08:42:00,
2013-09-10 03:48:00,74.0,62.3,29.80,SSW,200,5.0,8.0,67,0.00,,,0.00,0,Wunderground v.1.15,2013-09-10 08:48:00,
2013-09-10 03:53:00,73.9,62.2,29.80,SSW,193,5.0,8.0,67,0.00,,,0.00,0,Wunderground v.1.15,2013-09-10 08:53:00,
2013-09-10 03:58:00,73.9,62.2,29.80,South,187,4.0,8.0,67,0.00,,,0.00,0,Wunderground v.1.15,2013-09-10 08:58:00,
2013-09-10 04:03:00,73.6,62.4,29.80,South,184,4.0,6.0,68,0.00,,,0.00,0,Wunderground v.1.15,2013-09-10 09:03:00,
2013-09-10 04:08:00,73.4,62.2,29.80,SSW,205,4.0,6.0,68,0.00,,,0.00,0,Wunderground v.1.15,2013-09-10 09:08:00,
2013-09-10 04:14:00,73.3,62.5,29.80,South,172,4.0,7.0,69,0.00,,,0.00,0,Wunderground v.1.15,2013-09-10 09:14:00,
2013-09-10 04:19:00,73.3,62.5,29.80,South,182,4.0,7.0,69,0.00,,,0.00,0,Wunderground v.1.15,2013-09-10 09:19:00,
2013-09-10 04:25:00,72.7,62.3,29.81,SSE,160,4.0,5.0,70,0.00,,,0.00,0,Wunderground v.1.15,2013-09-10 09:25:00,
2013-09-10 04:31:00,71.8,62.3,29.81,South,171,3.0,5.0,72,0.00,,,0.00,0,Wunderground v.1.15,2013-09-10 09:31:00,
2013-09-10 04:36:00,71.2,62.1,29.81,SSE,161,3.0,5.0,73,0.00,,,0.00,0,Wunderground v.1.15,2013-09-10 09:36:00,
2013-09-10 04:42:00,70.9,62.2,29.81,SSE,160,3.0,3.0,74,0.00,,,0.00,0,Wunderground v.1.15,2013-09-10 09:42:00,
2013-09-10 04:47:00,70.7,62.0,29.81,SSE,153,2.0,3.0,74,0.00,,,0.00,0,Wunderground v.1.15,2013-09-10 09:47:00,
2013-09-10 04:52:00,69.9,61.6,29.81,SSE,153,1.0,2.0,75,0.00,,,0.00,0,Wunderground v.1.15,2013-09-10 09:52:00,
2013-09-10 04:57:00,69.1,61.9,29.81,SSE,153,1.0,2.0,78,0.00,,,0.00,0,Wunderground v.1.15,2013-09-10 09:57:00,
2013-09-10 05:02:00,68.9,61.8,29.82,SSE,153,0.0,1.0,78,0.00,,,0.00,0,Wunderground v.1.15,2013-09-10 10:02:00,
2013-09-10 05:07:00,69.0,62.2,29.82,SSE,153,1.0,2.0,79,0.00,,,0.00,0,Wunderground v.1.15,2013-09-10 10:07:00,
2013-09-10 05:12:00,69.1,61.9,29.82,SSE,153,1.0,2.0,78,0.00,,,0.00,0,Wunderground v.1.15,2013-09-10 10:12:00,
2013-09-10 05:18:00,69.5,62.3,29.82,SE,140,2.0,3.0,78,0.00,,,0.00,0,Wunderground v.1.15,2013-09-10 10:18:00,
2013-09-10 05:23:00,68.9,62.1,29.82,SE,142,2.0,2.0,79,0.00,,,0.00,0,Wunderground v.1.15,2013-09-10 10:23:00,
2013-09-10 05:28:00,68.4,62.3,29.82,SE,142,1.0,2.0,81,0.00,,,0.00,0,Wunderground v.1.15,2013-09-10 10:28:00,
2013-09-10 05:33:00,69.1,62.3,29.82,SSE,150,2.0,4.0,79,0.00,,,0.00,0,Wunderground v.1.15,2013-09-10 10:33:00,
2013-09-10 05:38:00,70.1,62.6,29.82,SSE,160,3.0,4.0,77,0.00,,,0.00,0,Wunderground v.1.15,2013-09-10 10:38:00,
2013-09-10 05:43:00,69.7,62.2,29.82,SSE,154,2.0,3.0,77,0.00,,,0.00,0,Wunderground v.1.15,2013-09-10 10:43:00,
2013-09-10 05:49:00,68.5,62.1,29.82,SSE,154,1.0,3.0,80,0.00,,,0.00,0,Wunderground v.1.15,2013-09-10 10:49:00,
2013-09-10 05:54:00,68.2,62.1,29.83,SSE,154,1.0,2.0,81,0.00,,,0.00,0,Wunderground v.1.15,2013-09-10 10:54:00,
2013-09-10 06:00:00,68.2,62.1,29.82,SE,127,1.0,1.0,81,0.00,,,0.00,0,Wunderground v.1.15,2013-09-10 11:00:00,
2013-09-10 06:05:00,68.7,62.6,29.82,SSE,150,2.0,4.0,81,0.00,,,0.00,0,Wunderground v.1.15,2013-09-10 11:05:00,
2013-09-10 06:10:00,69.9,62.7,29.82,SE,140,4.0,4.0,78,0.00,,,0.00,0,Wunderground v.1.15,2013-09-10 11:10:00,
2013-09-10 06:15:00,70.1,62.6,29.82,SSE,153,3.0,4.0,77,0.00,,,0.00,0,Wunderground v.1.15,2013-09-10 11:15:00,
2013-09-10 06:20:00,69.4,62.6,29.83,SSE,153,1.0,1.0,79,0.00,,,0.00,0,Wunderground v.1.15,2013-09-10 11:20:00,
2013-09-10 06:25:00,68.6,62.5,29.82,SE,142,1.0,3.0,81,0.00,,,0.00,0,Wunderground v.1.15,2013-09-10 11:25:00,
2013-09-10 06:30:00,69.2,62.8,29.82,SE,136,3.0,4.0,80,0.00,,,0.00,0,Wunderground v.1.15,2013-09-10 11:30:00,
2013-09-10 06:36:00,69.5,62.7,29.82,SSE,163,4.0,5.0,79,0.00,,,0.00,0,Wunderground v.1.15,2013-09-10 11:36:00,
2013-09-10 06:42:00,69.1,62.3,29.82,SSE,158,3.0,3.0,79,0.00,,,0.00,0,Wunderground v.1.15,2013-09-10 11:42:00,
2013-09-10 06:47:00,68.7,62.3,29.83,SSE,158,1.0,3.0,80,0.00,,,0.00,0,Wunderground v.1.15,2013-09-10 11:47:00,
2013-09-10 06:52:00,68.4,62.3,29.83,SSE,158,1.0,3.0,81,0.00,,,0.00,0,Wunderground v.1.15,2013-09-10 11:52:00,
2013-09-10 06:57:00,68.7,62.3,29.82,SSE,157,3.0,6.0,80,0.00,,,0.00,0,Wunderground v.1.15,2013-09-10 11:57:00,
2013-09-10 07:02:00,69.0,62.2,29.83,SE,146,4.0,4.0,79,0.00,,,0.00,5,Wunderground v.1.15,2013-09-10 12:02:00,
2013-09-10 07:08:00,69.0,62.2,29.83,SE,141,4.0,5.0,79,0.00,,,0.00,9,Wunderground v.1.15,2013-09-10 12:08:00,
2013-09-10 07:14:00,68.8,62.4,29.83,SSE,151,3.0,4.0,80,0.00,,,0.00,14,Wunderground v.1.15,2013-09-10 12:14:00,
2013-09-10 07:19:00,68.8,62.4,29.83,South,170,2.0,4.0,80,0.00,,,0.00,21,Wunderground v.1.15,2013-09-10 12:19:00,
2013-09-10 07:24:00,69.2,62.4,29.83,SSE,153,3.0,6.0,79,0.00,,,0.00,26,Wunderground v.1.15,2013-09-10 12:24:00,
2013-09-10 07:29:00,69.4,63.0,29.83,SSE,156,3.0,6.0,80,0.00,,,0.00,28,Wunderground v.1.15,2013-09-10 12:29:00,
2013-09-10 07:35:00,69.2,63.5,29.84,SSE,156,1.0,3.0,82,0.00,,,0.00,33,Wunderground v.1.15,2013-09-10 12:35:00,
2013-09-10 07:41:00,69.3,63.2,29.84,SSE,156,1.0,2.0,81,0.00,,,0.00,37,Wunderground v.1.15,2013-09-10 12:41:00,
2013-09-10 07:47:00,69.6,63.5,29.84,SSE,163,2.0,2.0,81,0.00,,,0.00,54,Wunderground v.1.15,2013-09-10 12:47:00,
2013-09-10 07:52:00,70.1,64.0,29.85,SSE,163,2.0,2.0,81,0.00,,,0.00,42,Wunderground v.1.15,2013-09-10 12:52:00,
2013-09-10 07:57:00,70.2,63.7,29.85,SE,146,1.0,2.0,80,0.00,,,0.00,69,Wunderground v.1.15,2013-09-10 12:57:00,
2013-09-10 08:02:00,70.4,64.3,29.85,SE,146,1.0,3.0,81,0.00,,,0.00,42,Wunderground v.1.15,2013-09-10 13:02:00,
2013-09-10 08:08:00,70.6,64.1,29.85,SSE,160,2.0,3.0,80,0.00,,,0.00,130,Wunderground v.1.15,2013-09-10 13:08:00,
2013-09-10 08:14:00,71.0,64.2,29.85,SSE,161,2.0,4.0,79,0.00,,,0.00,30,Wunderground v.1.15,2013-09-10 13:14:00,
2013-09-10 08:20:00,71.0,64.2,29.85,South,172,3.0,3.0,79,0.00,,,0.00,134,Wunderground v.1.15,2013-09-10 13:20:00,
2013-09-10 08:25:00,71.3,64.1,29.85,SSE,159,3.0,4.0,78,0.00,,,0.00,202,Wunderground v.1.15,2013-09-10 13:25:00,
2013-09-10 08:30:00,72.0,64.4,29.85,SSE,154,3.0,3.0,77,0.00,,,0.00,253,Wunderground v.1.15,2013-09-10 13:30:00,
2013-09-10 08:35:00,73.1,64.7,29.85,SSE,165,4.0,7.0,75,0.00,,,0.00,193,Wunderground v.1.15,2013-09-10 13:35:00,
2013-09-10 08:40:00,73.4,65.0,29.85,South,182,5.0,5.0,75,0.00,,,0.00,104,Wunderground v.1.15,2013-09-10 13:40:00,
2013-09-10 08:45:00,73.2,65.2,29.85,SE,145,4.0,5.0,76,0.00,,,0.00,91,Wunderground v.1.15,2013-09-10 13:45:00,
2013-09-10 08:50:00,73.3,64.5,29.85,South,178,5.0,5.0,74,0.00,,,0.00,98,Wunderground v.1.15,2013-09-10 13:50:00,
2013-09-10 08:56:00,73.7,64.5,29.85,SSW,200,5.0,6.0,73,0.00,,,0.00,306,Wunderground v.1.15,2013-09-10 13:56:00,
2013-09-10 09:02:00,73.9,64.7,29.85,South,173,4.0,7.0,73,0.00,,,0.00,121,Wunderground v.1.15,2013-09-10 14:02:00,
2013-09-10 09:07:00,74.3,64.7,29.85,South,176,4.0,7.0,72,0.00,,,0.00,322,Wunderground v.1.15,2013-09-10 14:07:00,
2013-09-10 09:12:00,74.7,65.1,29.85,SSE,165,5.0,7.0,72,0.00,,,0.00,329,Wunderground v.1.15,2013-09-10 14:12:00,
2013-09-10 09:17:00,75.3,65.6,29.85,SSW,198,5.0,7.0,72,0.00,,,0.00,348,Wunderground v.1.15,2013-09-10 14:17:00,
2013-09-10 09:23:00,75.9,65.4,29.86,South,186,5.0,8.0,70,0.00,,,0.00,366,Wunderground v.1.15,2013-09-10 14:23:00,
2013-09-10 09:28:00,76.3,65.8,29.86,SSW,199,5.0,8.0,70,0.00,,,0.00,357,Wunderground v.1.15,2013-09-10 14:28:00,
2013-09-10 09:33:00,76.9,66.8,29.86,SSW,200,4.0,9.0,71,0.00,,,0.00,394,Wunderground v.1.15,2013-09-10 14:33:00,
2013-09-10 09:38:00,77.1,65.7,29.85,SSW,194,5.0,9.0,68,0.00,,,0.00,448,Wunderground v.1.15,2013-09-10 14:38:00,
2013-09-10 09:43:00,77.9,67.3,29.86,SW,225,4.0,5.0,70,0.00,,,0.00,534,Wunderground v.1.15,2013-09-10 14:43:00,
2013-09-10 09:49:00,78.9,67.4,29.86,SSW,198,4.0,7.0,68,0.00,,,0.00,533,Wunderground v.1.15,2013-09-10 14:49:00,
2013-09-10 09:54:00,79.6,66.3,29.86,SSW,199,5.0,6.0,64,0.00,,,0.00,482,Wunderground v.1.15,2013-09-10 14:54:00,
2013-09-10 09:59:00,79.6,66.3,29.86,WSW,242,6.0,10.0,64,0.00,,,0.00,464,Wunderground v.1.15,2013-09-10 14:59:00,
2013-09-10 10:05:00,79.8,65.2,29.86,SW,225,7.0,10.0,61,0.00,,,0.00,476,Wunderground v.1.15,2013-09-10 15:05:00,
2013-09-10 10:10:00,80.1,65.4,29.85,South,180,8.0,8.0,61,0.00,,,0.00,487,Wunderground v.1.15,2013-09-10 15:10:00,
2013-09-10 10:15:00,80.7,65.5,29.86,SW,227,9.0,12.0,60,0.00,,,0.00,503,Wunderground v.1.15,2013-09-10 15:15:00,
2013-09-10 10:20:00,80.8,65.1,29.85,SW,214,9.0,20.0,59,0.00,,,0.00,512,Wunderground v.1.15,2013-09-10 15:20:00,
2013-09-10 10:25:00,80.9,66.2,29.86,SSW,203,10.0,20.0,61,0.00,,,0.00,527,Wunderground v.1.15,2013-09-10 15:25:00,
2013-09-10 10:31:00,81.5,65.3,29.86,SSW,206,10.0,12.0,58,0.00,,,0.00,543,Wunderground v.1.15,2013-09-10 15:31:00,
2013-09-10 10:37:00,81.5,65.3,29.86,SSW,209,10.0,14.0,58,0.00,,,0.00,559,Wunderground v.1.15,2013-09-10 15:37:00,
2013-09-10 10:42:00,81.7,65.0,29.86,WSW,244,10.0,12.0,57,0.00,,,0.00,571,Wunderground v.1.15,2013-09-10 15:42:00,
2013-09-10 10:47:00,82.0,66.3,29.86,SW,217,10.0,13.0,59,0.00,,,0.00,582,Wunderground v.1.15,2013-09-10 15:47:00,
2013-09-10 10:53:00,82.0,65.8,29.86,SW,225,10.0,11.0,58,0.00,,,0.00,599,Wunderground v.1.15,2013-09-10 15:53:00,
2013-09-10 10:58:00,82.5,66.2,29.86,WSW,241,10.0,13.0,58,0.00,,,0.00,606,Wunderground v.1.15,2013-09-10 15:58:00,
2013-09-10 11:03:00,82.7,66.4,29.86,SW,235,10.0,15.0,58,0.00,,,0.00,615,Wunderground v.1.15,2013-09-10 16:03:00,
2013-09-10 11:09:00,83.0,65.7,29.86,WSW,241,10.0,15.0,56,0.00,,,0.00,633,Wunderground v.1.15,2013-09-10 16:09:00,
2013-09-10 11:15:00,83.6,66.2,29.86,SSW,200,10.0,12.0,56,0.00,,,0.00,643,Wunderground v.1.15,2013-09-10 16:15:00,
2013-09-10 11:21:00,83.8,65.4,29.86,West,274,10.0,14.0,54,0.00,,,0.00,654,Wunderground v.1.15,2013-09-10 16:21:00,
2013-09-10 11:27:00,84.2,65.8,29.86,West,272,9.0,14.0,54,0.00,,,0.00,666,Wunderground v.1.15,2013-09-10 16:27:00,
2013-09-10 11:32:00,84.5,66.0,29.87,WSW,242,9.0,14.0,54,0.00,,,0.00,673,Wunderground v.1.15,2013-09-10 16:32:00,
2013-09-10 11:38:00,84.3,66.4,29.86,WSW,257,9.0,14.0,55,0.00,,,0.00,686,Wunderground v.1.15,2013-09-10 16:38:00,
2013-09-10 11:44:00,84.5,64.9,29.87,WSW,254,10.0,12.0,52,0.00,,,0.00,691,Wunderground v.1.15,2013-09-10 16:44:00,
2013-09-10 11:50:00,85.0,66.0,29.87,WSW,241,10.0,11.0,53,0.00,,,0.00,698,Wunderground v.1.15,2013-09-10 16:50:00,
2013-09-10 11:55:00,84.8,66.3,29.87,SSW,211,11.0,13.0,54,0.00,,,0.00,700,Wunderground v.1.15,2013-09-10 16:55:00,
2013-09-10 12:00:00,85.6,67.6,29.87,SSW,201,9.0,9.0,55,0.00,,,0.00,708,Wunderground v.1.15,2013-09-10 17:00:00,
2013-09-10 12:06:00,85.3,66.8,29.86,West,280,8.0,17.0,54,0.00,,,0.00,717,Wunderground v.1.15,2013-09-10 17:06:00,
2013-09-10 12:11:00,86.0,66.9,29.86,WSW,250,9.0,11.0,53,0.00,,,0.00,721,Wunderground v.1.15,2013-09-10 17:11:00,
2013-09-10 12:16:00,86.1,68.0,29.86,SSW,210,7.0,11.0,55,0.00,,,0.00,728,Wunderground v.1.15,2013-09-10 17:16:00,
2013-09-10 12:21:00,86.8,66.5,29.86,SW,215,7.0,9.0,51,0.00,,,0.00,731,Wunderground v.1.15,2013-09-10 17:21:00,
2013-09-10 12:26:00,86.4,66.7,29.86,SSW,206,8.0,11.0,52,0.00,,,0.00,738,Wunderground v.1.15,2013-09-10 17:26:00,
2013-09-10 12:31:00,86.4,66.7,29.86,WSW,258,9.0,9.0,52,0.00,,,0.00,740,Wunderground v.1.15,2013-09-10 17:31:00,
2013-09-10 12:36:00,86.6,66.3,29.87,SSW,205,9.0,14.0,51,0.00,,,0.00,744,Wunderground v.1.15,2013-09-10 17:36:00,
2013-09-10 12:41:00,87.0,66.7,29.87,South,173,8.0,14.0,51,0.00,,,0.00,747,Wunderground v.1.15,2013-09-10 17:41:00,
2013-09-10 12:47:00,86.9,66.0,29.87,SW,215,8.0,14.0,50,0.00,,,0.00,751,Wunderground v.1.15,2013-09-10 17:47:00,
2013-09-10 12:52:00,87.3,67.0,29.86,WSW,246,7.0,10.0,51,0.00,,,0.00,749,Wunderground v.1.15,2013-09-10 17:52:00,
2013-09-10 12:57:00,87.9,68.1,29.86,SSW,203,7.0,13.0,52,0.00,,,0.00,756,Wunderground v.1.15,2013-09-10 17:57:00,
2013-09-10 13:02:00,88.2,67.8,29.86,SSW,209,7.0,7.0,51,0.00,,,0.00,756,Wunderground v.1.15,2013-09-10 18:02:00,
2013-09-10 13:07:00,88.2,67.8,29.86,WSW,241,8.0,11.0,51,0.00,,,0.00,763,Wunderground v.1.15,2013-09-10 18:07:00,
2013-09-10 13:12:00,88.2,68.4,29.86,SSE,157,8.0,8.0,52,0.00,,,0.00,759,Wunderground v.1.15,2013-09-10 18:12:00,
2013-09-10 13:17:00,88.9,68.4,29.86,WSW,244,7.0,11.0,51,0.00,,,0.00,763,Wunderground v.1.15,2013-09-10 18:17:00,
2013-09-10 13:23:00,88.7,67.7,29.86,West,265,8.0,11.0,50,0.00,,,0.00,761,Wunderground v.1.15,2013-09-10 18:23:00,
2013-09-10 13:29:00,89.1,67.5,29.86,WSW,250,7.0,11.0,49,0.00,,,0.00,759,Wunderground v.1.15,2013-09-10 18:29:00,
2013-09-10 13:34:00,89.5,67.2,29.86,WSW,244,7.0,10.0,48,0.00,,,0.00,759,Wunderground v.1.15,2013-09-10 18:34:00,
2013-09-10 13:40:00,89.9,69.9,29.86,WSW,239,7.0,9.0,52,0.00,,,0.00,756,Wunderground v.1.15,2013-09-10 18:40:00,
2013-09-10 13:45:00,89.7,66.2,29.86,SW,234,7.0,9.0,46,0.00,,,0.00,752,Wunderground v.1.15,2013-09-10 18:45:00,
2013-09-10 13:50:00,90.1,68.4,29.86,South,181,7.0,9.0,49,0.00,,,0.00,754,Wunderground v.1.15,2013-09-10 18:50:00,
2013-09-10 13:56:00,90.3,67.3,29.86,West,265,7.0,12.0,47,0.00,,,0.00,751,Wunderground v.1.15,2013-09-10 18:56:00,
2013-09-10 14:01:00,90.8,67.2,29.86,SW,230,7.0,8.0,46,0.00,,,0.00,747,Wunderground v.1.15,2013-09-10 19:01:00,
2013-09-10 14:07:00,91.0,68.6,29.85,South,186,7.0,10.0,48,0.00,,,0.00,744,Wunderground v.1.15,2013-09-10 19:07:00,
2013-09-10 14:12:00,91.1,67.4,29.85,WSW,238,7.0,11.0,46,0.00,,,0.00,735,Wunderground v.1.15,2013-09-10 19:12:00,
2013-09-10 14:17:00,91.3,68.9,29.85,SSW,196,7.0,11.0,48,0.00,,,0.00,742,Wunderground v.1.15,2013-09-10 19:17:00,
2013-09-10 14:23:00,91.5,68.4,29.85,SW,215,7.0,10.0,47,0.00,,,0.00,735,Wunderground v.1.15,2013-09-10 19:23:00,
2013-09-10 14:29:00,91.6,67.3,29.85,West,261,8.0,13.0,45,0.00,,,0.00,724,Wunderground v.1.15,2013-09-10 19:29:00,
2013-09-10 14:34:00,92.1,67.7,29.85,SW,215,8.0,13.0,45,0.00,,,0.00,726,Wunderground v.1.15,2013-09-10 19:34:00,
2013-09-10 14:39:00,92.0,67.6,29.85,WSW,248,9.0,13.0,45,0.00,,,0.00,714,Wunderground v.1.15,2013-09-10 19:39:00,
2013-09-10 14:44:00,92.5,68.1,29.84,WSW,246,8.0,8.0,45,0.00,,,0.00,701,Wunderground v.1.15,2013-09-10 19:44:00,
2013-09-10 14:49:00,92.5,68.1,29.84,SW,230,7.0,15.0,45,0.00,,,0.00,701,Wunderground v.1.15,2013-09-10 19:49:00,
2013-09-10 14:55:00,92.8,67.7,29.84,SW,229,7.0,10.0,44,0.00,,,0.00,698,Wunderground v.1.15,2013-09-10 19:55:00,
2013-09-10 15:01:00,92.9,67.8,29.84,SSW,208,7.0,9.0,44,0.00,,,0.00,698,Wunderground v.1.15,2013-09-10 20:01:00,
2013-09-10 15:06:00,92.9,67.8,29.84,SSW,200,8.0,13.0,44,0.00,,,0.00,707,Wunderground v.1.15,2013-09-10 20:06:00,
2013-09-10 15:11:00,93.1,68.6,29.84,SW,234,9.0,10.0,45,0.00,,,0.00,671,Wunderground v.1.15,2013-09-10 20:11:00,
2013-09-10 15:16:00,93.4,68.2,29.84,WSW,247,10.0,15.0,44,0.00,,,0.00,670,Wunderground v.1.15,2013-09-10 20:16:00,
2013-09-10 15:21:00,93.2,68.7,29.83,SW,227,10.0,14.0,45,0.00,,,0.00,661,Wunderground v.1.15,2013-09-10 20:21:00,
2013-09-10 15:27:00,93.3,68.1,29.83,SW,214,9.0,14.0,44,0.00,,,0.00,642,Wunderground v.1.15,2013-09-10 20:27:00,
2013-09-10 15:32:00,93.3,66.8,29.83,WSW,246,10.0,10.0,42,0.00,,,0.00,638,Wunderground v.1.15,2013-09-10 20:32:00,
2013-09-10 15:37:00,93.4,67.6,29.83,WSW,246,10.0,13.0,43,0.00,,,0.00,633,Wunderground v.1.15,2013-09-10 20:37:00,
2013-09-10 15:43:00,93.6,66.4,29.83,West,259,10.0,11.0,41,0.00,,,0.00,633,Wunderground v.1.15,2013-09-10 20:43:00,
2013-09-10 15:49:00,93.5,66.3,29.83,SW,229,9.0,16.0,41,0.00,,,0.00,642,Wunderground v.1.15,2013-09-10 20:49:00,
2013-09-10 15:55:00,93.7,66.4,29.82,SW,225,10.0,13.0,41,0.00,,,0.00,622,Wunderground v.1.15,2013-09-10 20:55:00,
2013-09-10 16:01:00,94.1,66.8,29.82,SSW,205,9.0,13.0,41,0.00,,,0.00,617,Wunderground v.1.15,2013-09-10 21:01:00,
2013-09-10 16:07:00,93.7,66.4,29.82,SSW,212,9.0,13.0,41,0.00,,,0.00,608,Wunderground v.1.15,2013-09-10 21:07:00,
2013-09-10 16:12:00,93.4,66.2,29.82,SSW,200,9.0,15.0,41,0.00,,,0.00,100,Wunderground v.1.15,2013-09-10 21:12:00,
2013-09-10 16:17:00,93.0,66.5,29.82,South,185,10.0,15.0,42,0.00,,,0.00,411,Wunderground v.1.15,2013-09-10 21:17:00,
2013-09-10 16:22:00,92.3,65.2,29.82,SSW,213,10.0,14.0,41,0.00,,,0.00,104,Wunderground v.1.15,2013-09-10 21:22:00,
2013-09-10 16:28:00,91.8,66.1,29.82,SSW,200,11.0,14.0,43,0.00,,,0.00,123,Wunderground v.1.15,2013-09-10 21:28:00,
2013-09-10 16:34:00,91.5,65.8,29.82,SW,235,9.0,13.0,43,0.00,,,0.00,81,Wunderground v.1.15,2013-09-10 21:34:00,
2013-09-10 16:40:00,91.1,66.8,29.83,WNW,293,10.0,13.0,45,0.00,,,0.00,63,Wunderground v.1.15,2013-09-10 21:40:00,
2013-09-10 16:46:00,87.3,65.8,29.83,NW,321,11.0,15.0,49,0.00,,,0.00,53,Wunderground v.1.15,2013-09-10 21:46:00,
2013-09-10 16:52:00,85.0,65.4,29.83,NNW,334,14.0,20.0,52,0.00,,,0.00,67,Wunderground v.1.15,2013-09-10 21:52:00,
2013-09-10 16:57:00,82.5,67.2,29.83,NW,315,15.0,20.0,60,0.00,,,0.00,88,Wunderground v.1.15,2013-09-10 21:57:00,
2013-09-10 17:02:00,80.7,67.4,29.83,NNW,331,12.0,14.0,64,0.00,,,0.00,70,Wunderground v.1.15,2013-09-10 22:02:00,
2013-09-10 17:07:00,80.3,68.3,29.83,NW,325,11.0,14.0,67,0.00,,,0.00,93,Wunderground v.1.15,2013-09-10 22:07:00,
2013-09-10 17:12:00,80.4,69.7,29.82,NNE,29,8.0,9.0,70,0.00,,,0.00,183,Wunderground v.1.15,2013-09-10 22:12:00,
2013-09-10 17:18:00,80.7,70.8,29.82,ENE,65,4.0,9.0,72,0.00,,,0.00,135,Wunderground v.1.15,2013-09-10 22:18:00,
2013-09-10 17:23:00,81.0,71.1,29.83,West,276,2.0,7.0,72,0.67,,,0.02,98,Wunderground v.1.15,2013-09-10 22:23:00,
2013-09-10 17:29:00,79.7,70.7,29.82,ENE,76,4.0,7.0,74,0.91,,,0.13,90,Wunderground v.1.15,2013-09-10 22:29:00,
2013-09-10 17:34:00,80.2,69.1,29.82,SSE,156,4.0,5.0,69,0.11,,,0.13,172,Wunderground v.1.15,2013-09-10 22:34:00,
2013-09-10 17:40:00,80.4,72.1,29.83,NW,317,4.0,5.0,76,0.05,,,0.13,197,Wunderground v.1.15,2013-09-10 22:40:00,
2013-09-10 17:46:00,80.5,72.6,29.82,NNW,332,4.0,5.0,77,0.04,,,0.14,165,Wunderground v.1.15,2013-09-10 22:46:00,
2013-09-10 17:52:00,79.9,74.3,29.82,SE,143,1.0,3.0,83,0.04,,,0.14,104,Wunderground v.1.15,2013-09-10 22:52:00,
2013-09-10 17:58:00,79.7,73.0,29.82,North,360,2.0,3.0,80,0.04,,,0.14,56,Wunderground v.1.15,2013-09-10 22:58:00,
2013-09-10 18:04:00,80.1,73.0,29.82,NW,321,2.0,4.0,79,0.00,,,0.14,28,Wunderground v.1.15,2013-09-10 23:04:00,
2013-09-10 18:09:00,79.4,73.4,29.82,North,355,3.0,4.0,82,0.00,,,0.14,18,Wunderground v.1.15,2013-09-10 23:09:00,
2013-09-10 18:14:00,78.9,73.7,29.83,North,355,3.0,4.0,84,0.00,,,0.14,14,Wunderground v.1.15,2013-09-10 23:14:00,
2013-09-10 18:20:00,78.9,73.7,29.83,North,349,2.0,2.0,84,0.00,,,0.14,11,Wunderground v.1.15,2013-09-10 23:20:00,
2013-09-10 18:26:00,79.4,73.1,29.83,NNE,16,2.0,3.0,81,0.00,,,0.14,14,Wunderground v.1.15,2013-09-10 23:26:00,
2013-09-10 18:32:00,79.1,73.5,29.83,NNE,28,2.0,3.0,83,0.00,,,0.14,14,Wunderground v.1.15,2013-09-10 23:32:00,
2013-09-10 18:37:00,78.7,73.1,29.83,NNW,338,2.0,4.0,83,0.00,,,0.14,9,Wunderground v.1.15,2013-09-10 23:37:00,
2013-09-10 18:42:00,79.3,73.0,29.84,NNW,344,3.0,4.0,81,0.00,,,0.14,7,Wunderground v.1.15,2013-09-10 23:42:00,
2013-09-10 18:47:00,78.9,72.6,29.83,NNE,32,4.0,5.0,81,0.00,,,0.14,7,Wunderground v.1.15,2013-09-10 23:47:00,
2013-09-10 18:52:00,79.0,71.9,29.84,NNE,17,4.0,6.0,79,0.00,,,0.14,0,Wunderground v.1.15,2013-09-10 23:52:00,
2013-09-10 18:58:00,79.1,70.5,29.86,NNW,331,7.0,10.0,75,0.00,,,0.14,0,Wunderground v.1.15,2013-09-10 23:58:00,
2013-09-10 19:04:00,79.5,70.1,29.85,NW,326,9.0,10.0,73,0.00,,,0.14,0,Wunderground v.1.15,2013-09-11 00:04:00,
2013-09-10 19:10:00,78.1,70.3,29.87,West,276,9.0,9.0,77,0.00,,,0.14,0,Wunderground v.1.15,2013-09-11 00:10:00,
2013-09-10 19:16:00,76.4,70.1,29.88,NW,315,9.0,12.0,81,0.00,,,0.14,0,Wunderground v.1.15,2013-09-11 00:16:00,
2013-09-10 19:22:00,75.7,69.8,29.89,West,278,9.0,13.0,82,0.00,,,0.14,0,Wunderground v.1.15,2013-09-11 00:22:00,
2013-09-10 19:27:00,75.7,67.2,29.90,West,280,10.0,15.0,75,0.00,,,0.15,0,Wunderground v.1.15,2013-09-11 00:27:00,
2013-09-10 19:32:00,74.2,67.6,29.89,WNW,283,13.0,19.0,80,1.36,,,0.22,0,Wunderground v.1.15,2013-09-11 00:32:00,
2013-09-10 19:37:00,72.5,66.7,29.89,WNW,284,13.0,19.0,82,0.88,,,0.30,0,Wunderground v.1.15,2013-09-11 00:37:00,
2013-09-10 19:42:00,72.0,67.6,29.89,SW,220,10.0,13.0,86,0.98,,,0.38,0,Wunderground v.1.15,2013-09-11 00:42:00,
2013-09-10 19:48:00,72.3,68.2,29.88,SW,216,7.0,13.0,87,0.39,,,0.42,0,Wunderground v.1.15,2013-09-11 00:48:00,
2013-09-10 19:54:00,72.4,68.3,29.89,South,171,6.0,10.0,87,0.08,,,0.42,0,Wunderground v.1.15,2013-09-11 00:54:00,
2013-09-10 19:59:00,72.9,68.1,29.89,WSW,252,8.0,12.0,85,0.06,,,0.43,0,Wunderground v.1.15,2013-09-11 00:59:00,
2013-09-10 20:04:00,73.2,68.4,29.89,WSW,251,10.0,15.0,85,0.06,,,0.43,0,Wunderground v.1.15,2013-09-11 01:04:00,
2013-09-10 20:09:00,73.1,67.6,29.89,WNW,290,8.0,15.0,83,0.07,,,0.44,0,Wunderground v.1.15,2013-09-11 01:09:00,
2013-09-10 20:14:00,73.0,67.9,29.89,NNW,344,7.0,10.0,84,0.13,,,0.45,0,Wunderground v.1.15,2013-09-11 01:14:00,
2013-09-10 20:20:00,72.1,68.0,29.90,South,187,5.0,5.0,87,0.29,,,0.48,0,Wunderground v.1.15,2013-09-11 01:20:00,
2013-09-10 20:26:00,71.9,67.5,29.91,NW,307,5.0,9.0,86,0.13,,,0.49,0,Wunderground v.1.15,2013-09-11 01:26:00,
2013-09-10 20:31:00,72.2,67.4,29.94,West,275,8.0,8.0,85,0.07,,,0.49,0,Wunderground v.1.15,2013-09-11 01:31:00,
2013-09-10 20:36:00,72.2,68.1,29.93,SW,221,11.0,20.0,87,1.34,,,0.52,0,Wunderground v.1.15,2013-09-11 01:36:00,
2013-09-10 20:41:00,72.1,68.0,29.94,SSW,203,15.0,16.0,87,0.76,,,0.59,0,Wunderground v.1.15,2013-09-11 01:41:00,
2013-09-10 20:47:00,71.6,66.2,29.94,SW,236,14.0,20.0,83,3.10,,,0.70,0,Wunderground v.1.15,2013-09-11 01:47:00,
2013-09-10 20:52:00,73.1,65.1,29.93,WNW,294,11.0,13.0,76,1.79,,,0.86,0,Wunderground v.1.15,2013-09-11 01:52:00,
2013-09-10 20:57:00,73.1,66.2,29.92,SSE,161,7.0,13.0,79,0.31,,,0.91,0,Wunderground v.1.15,2013-09-11 01:57:00,
2013-09-10 21:03:00,70.9,66.2,29.93,South,176,2.0,4.0,85,0.08,,,0.91,0,Wunderground v.1.15,2013-09-11 02:03:00,
2013-09-10 21:08:00,70.5,66.1,29.93,NW,308,3.0,8.0,86,0.05,,,0.92,0,Wunderground v.1.15,2013-09-11 02:08:00,
2013-09-10 21:13:00,71.1,66.4,29.94,NW,322,5.0,8.0,85,0.12,,,0.93,0,Wunderground v.1.15,2013-09-11 02:13:00,
2013-09-10 21:18:00,70.7,66.6,29.92,NE,37,6.0,8.0,87,1.68,,,1.02,0,Wunderground v.1.15,2013-09-11 02:18:00,
2013-09-10 21:24:00,70.3,66.6,29.92,North,11,6.0,10.0,88,0.09,,,1.02,0,Wunderground v.1.15,2013-09-11 02:24:00,
2013-09-10 21:30:00,70.3,66.9,29.92,WNW,284,5.0,5.0,89,0.07,,,1.03,0,Wunderground v.1.15,2013-09-11 02:30:00,
2013-09-10 21:35:00,70.3,67.2,29.92,West,271,2.0,5.0,90,0.07,,,1.03,0,Wunderground v.1.15,2013-09-11 02:35:00,
2013-09-10 21:40:00,70.6,67.2,29.93,West,273,2.0,4.0,89,0.57,,,1.05,0,Wunderground v.1.15,2013-09-11 02:40:00,
2013-09-10 21:45:00,71.5,67.4,29.91,NNE,26,3.0,5.0,87,0.36,,,1.09,0,Wunderground v.1.15,2013-09-11 02:45:00,
2013-09-10 21:50:00,71.1,67.4,29.91,ESE,111,3.0,3.0,88,0.12,,,1.10,0,Wunderground v.1.15,2013-09-11 02:50:00,
2013-09-10 21:55:00,71.0,67.6,29.90,NE,49,3.0,5.0,89,0.06,,,1.10,0,Wunderground v.1.15,2013-09-11 02:55:00,
2013-09-10 22:01:00,71.3,67.6,29.89,North,5,5.0,9.0,88,0.04,,,1.10,0,Wunderground v.1.15,2013-09-11 03:01:00,
2013-09-10 22:07:00,72.6,67.5,29.91,West,281,6.0,9.0,84,0.00,,,1.10,0,Wunderground v.1.15,2013-09-11 03:07:00,
2013-09-10 22:13:00,73.9,68.4,29.95,WNW,301,7.0,26.0,83,0.00,,,1.10,0,Wunderground v.1.15,2013-09-11 03:13:00,
2013-09-10 22:18:00,73.8,68.3,29.96,WSW,240,15.0,26.0,83,1.83,,,1.22,0,Wunderground v.1.15,2013-09-11 03:18:00,
2013-09-10 22:23:00,73.1,69.0,29.97,SW,227,18.0,18.0,87,2.69,,,1.35,0,Wunderground v.1.15,2013-09-11 03:23:00,
2013-09-10 22:28:00,72.4,69.0,29.98,SW,227,14.0,18.0,89,2.73,,,1.46,0,Wunderground v.1.15,2013-09-11 03:28:00,
2013-09-10 22:34:00,72.2,67.8,29.97,West,274,12.0,14.0,86,1.32,,,1.59,0,Wunderground v.1.15,2013-09-11 03:34:00,
2013-09-10 22:39:00,71.5,67.1,29.97,WNW,296,11.0,14.0,86,0.95,,,1.71,0,Wunderground v.1.15,2013-09-11 03:39:00,
2013-09-10 22:45:00,70.9,66.8,29.97,NW,317,8.0,11.0,87,0.12,,,1.73,0,Wunderground v.1.15,2013-09-11 03:45:00,
2013-09-10 22:51:00,70.4,67.3,29.99,WNW,286,5.0,5.0,90,0.09,,,1.74,0,Wunderground v.1.15,2013-09-11 03:51:00,
2013-09-10 22:57:00,70.5,67.7,29.99,West,277,5.0,8.0,91,0.10,,,1.75,0,Wunderground v.1.15,2013-09-11 03:57:00,
2013-09-10 23:01:00,70.5,68.1,29.98,NNW,347,4.0,4.0,92,0.30,,,1.78,0,Wunderground v.1.15,2013-09-11 04:01:00,
2013-09-10 23:03:00,70.5,68.4,29.98,NNW,345,3.0,4.0,93,0.24,,,1.78,0,Wunderground v.1.15,2013-09-11 04:03:00,
2013-09-10 23:04:00,70.5,68.4,29.98,North,355,3.0,4.0,93,0.18,,,1.78,0,Wunderground v.1.15,2013-09-11 04:04:00,
2013-09-10 23:08:00,70.5,68.4,29.97,NW,304,3.0,5.0,93,0.08,,,1.78,0,Wunderground v.1.15,2013-09-11 04:08:00,
2013-09-10 23:10:00,70.5,68.7,29.97,WNW,300,3.0,3.0,94,0.06,,,1.78,0,Wunderground v.1.15,2013-09-11 04:10:00,
2013-09-10 23:11:00,70.5,68.7,29.97,NW,317,3.0,3.0,94,0.06,,,1.78,0,Wunderground v.1.15,2013-09-11 04:11:00,
2013-09-10 23:16:00,70.6,68.8,29.97,West,273,2.0,4.0,94,0.04,,,1.79,0,Wunderground v.1.15,2013-09-11 04:16:00,
2013-09-10 23:21:00,70.7,68.9,29.96,WNW,294,2.0,2.0,94,0.04,,,1.79,0,Wunderground v.1.15,2013-09-11 04:21:00,
2013-09-10 23:26:00,70.8,69.0,29.96,NW,314,2.0,3.0,94,0.04,,,1.79,0,Wunderground v.1.15,2013-09-11 04:26:00,
2013-09-10 23:31:00,70.8,69.0,29.98,West,281,3.0,7.0,94,0.00,,,1.79,0,Wunderground v.1.15,2013-09-11 04:31:00,
2013-09-10 23:36:00,70.5,68.4,29.97,West,259,7.0,18.0,93,0.99,,,1.85,0,Wunderground v.1.15,2013-09-11 04:36:00,
2013-09-10 23:42:00,69.7,67.3,29.98,WSW,244,10.0,10.0,92,0.14,,,1.86,0,Wunderground v.1.15,2013-09-11 04:42:00,
2013-09-10 23:47:00,69.1,66.7,29.99,WSW,243,10.0,23.0,92,0.53,,,1.89,0,Wunderground v.1.15,2013-09-11 04:47:00,
2013-09-10 23:52:00,68.4,66.0,29.99,WSW,243,11.0,11.0,92,0.79,,,1.98,0,Wunderground v.1.15,2013-09-11 04:52:00,
2013-09-10 23:57:00,68.1,66.0,29.99,SW,223,9.0,11.0,93,0.24,,,2.00,0,Wunderground v.1.15,2013-09-11 04:57:00,